O3B MPOWER F1

Last updated on Wed Jun 24 2026 00:03:26 GMT+0000 (Coordinated Universal Time)

1 54755U 22174A 26173.80187385 -.00000022 00000+0 00000+0 0 9994 2 54755 0.0515 341.2472 0006475 123.2659 6.3119 5.00114919 65643
UTC large
Height (km)
Speed (km/s)
/
Latitude / Longitude
Inclination (degrees)
Orbital Period (minutes)
Azimuth
Elevation
Range (km)
Doppler Factor

Next 0 passes for location: London (51.5072 / 0.1276)

No passes found over London.
O3B MPOWER F1